This is the latest recevied weather packets stored in our database for station/object KE8RXN. If no packets are shown the sender has not sent any weather packets the latest 10 day(s).
| Time | Temp. | Humidity | Pressure | Rain* | Wind** | Luminosity | Snow |
|---|---|---|---|---|---|---|---|
| 1778070646 | 6.11° C | 72% | 1016.3 hPa | 0 mm | - | 183 W/m² | - |
| 1778070342 | 5.56° C | 74% | 1016.3 hPa | 0 mm | - | 170 W/m² | - |
| 1778070040 | 5.56° C | 73% | 1016.2 hPa | 0 mm | - | 150 W/m² | - |
| 1778069737 | 5.56° C | 75% | 1016.1 hPa | 0 mm | - | 138 W/m² | - |
| 1778069433 | 5.56° C | 74% | 1016 hPa | 0 mm | - | 119 W/m² | - |
| 1778069131 | 5.56° C | 74% | 1016.3 hPa | 0 mm | - | 55 W/m² | - |
| 1778068829 | 5.56° C | 74% | 1015.8 hPa | 0 mm | - | 58 W/m² | - |
| 1778068526 | 5° C | 74% | 1015.8 hPa | 0 mm | - | 53 W/m² | - |
| 1778068225 | 5° C | 75% | 1015.7 hPa | 0 mm | - | 49 W/m² | - |
| 1778067922 | 5° C | 75% | 1015.5 hPa | 0 mm | - | 45 W/m² | - |
| 1778067620 | 4.44° C | 76% | 1015.4 hPa | 0 mm | - | 44 W/m² | - |
| 1778067318 | 4.44° C | 77% | 1015.3 hPa | 0 mm | - | 39 W/m² | - |
| 1778067015 | 3.89° C | 77% | 1015.3 hPa | 0 mm | - | 36 W/m² | - |
| 1778066711 | 3.89° C | 80% | 1015.2 hPa | 0 mm | - | 32 W/m² | - |
| 1778066409 | 3.33° C | 82% | 1015.2 hPa | 0 mm | - | 28 W/m² | - |
| 1778066107 | 2.22° C | 84% | 1015.1 hPa | 0 mm | - | 20 W/m² | - |
| 1778065803 | 2.22° C | 84% | 1014.9 hPa | 0 mm | - | 15 W/m² | - |
| 1778065501 | 2.22° C | 84% | 1014.7 hPa | 0 mm | - | 16 W/m² | - |
| 1778065197 | 2.22° C | 85% | 1014.6 hPa | 0 mm | - | 16 W/m² | - |
| 1778064894 | 1.67° C | 86% | 1014.7 hPa | 0 mm | - | 12 W/m² | - |
| 1778064591 | 1.67° C | 88% | 1014.9 hPa | 0 mm | - | 10 W/m² | - |
| 1778064289 | 1.11° C | 88% | 1014.7 hPa | 0 mm | - | 7 W/m² | - |
| 1778063987 | 1.11° C | 88% | 1014.8 hPa | 0 mm | - | 5 W/m² | - |
| 1778063684 | 1.11° C | 88% | 1014.9 hPa | 0 mm | - | 2 W/m² | - |
| 1778063381 | 1.11° C | 88% | 1014.9 hPa | 0 mm | - | 0 W/m² | - |
* Rain latest hour (hover to see other rain measurements)
** Current wind speed in m/s (hover to see current wind gust speed)